| time (UTC) | temp F | wind direction | speed MPH | gust MPH | rain 1hr in | rain 24hr in | rain mn in | humidity % | barometer mb |
| 20260504010519 | 54 | 0.0 | 0.0 | 0.00 | 0.00 | 0.00 | 65 | 1009.1 | |
| 20260504005539 | 54 | 0.0 | 1.0 | 0.00 | 0.00 | 0.00 | 63 | 1008.7 | |
| 20260504004519 | 54 | 248 | 1.0 | 4.0 | 0.00 | 0.00 | 0.00 | 63 | 1008.8 |
| 20260504003519 | 54 | 0.0 | 2.0 | 0.00 | 0.00 | 0.00 | 64 | 1009.1 | |
| 20260504002518 | 55 | 0.0 | 3.0 | 0.00 | 0.00 | 0.00 | 62 | 1009.3 | |
| 20260504001538 | 55 | 293 | 1.0 | 4.0 | 0.00 | 0.00 | 0.00 | 61 | 1009.3 |
| 20260504000518 | 55 | 225 | 3.0 | 13.0 | 0.00 | 0.00 | 0.00 | 59 | 1009.2 |
| 20260503235519 | 56 | 248 | 1.0 | 5.0 | 0.00 | 0.00 | 0.00 | 57 | 1009.0 |
| 20260503234518 | 56 | 203 | 3.0 | 9.0 | 0.00 | 0.00 | 0.00 | 55 | 1009.0 |
| 20260503233639 | 57 | 225 | 4.0 | 15.0 | 0.00 | 0.00 | 0.00 | 54 | 1009.1 |
| 20260503232519 | 57 | 225 | 4.0 | 16.0 | 0.00 | 0.00 | 0.00 | 51 | 1009.0 |
| 20260503231518 | 57 | 248 | 5.0 | 13.0 | 0.00 | 0.00 | 0.00 | 48 | 1008.8 |
| 20260503230518 | 57 | 225 | 6.0 | 16.0 | 0.00 | 0.00 | 0.00 | 47 | 1008.5 |
| 20260503225518 | 58 | 225 | 4.0 | 9.0 | 0.00 | 0.00 | 0.00 | 45 | 1008.4 |
| 20260503224518 | 58 | 248 | 3.0 | 10.0 | 0.00 | 0.00 | 0.00 | 45 | 1008.4 |
| 20260503223519 | 58 | 225 | 3.0 | 11.0 | 0.00 | 0.00 | 0.00 | 44 | 1008.4 |
| 20260503222518 | 59 | 225 | 4.0 | 12.0 | 0.00 | 0.00 | 0.00 | 41 | 1008.4 |
| 20260503221518 | 59 | 225 | 3.0 | 7.0 | 0.00 | 0.00 | 0.00 | 40 | 1008.4 |
| 20260503220518 | 59 | 203 | 3.0 | 8.0 | 0.00 | 0.00 | 0.00 | 43 | 1008.5 |
| 20260503215518 | 59 | 225 | 2.0 | 6.0 | 0.00 | 0.01 | 0.00 | 42 | 1008.7 |
| 20260503214518 | 60 | 225 | 3.0 | 8.0 | 0.00 | 0.01 | 0.00 | 41 | 1008.7 |
| 20260503213518 | 60 | 293 | 1.0 | 4.0 | 0.00 | 0.01 | 0.00 | 42 | 1008.6 |
| 20260503212518 | 60 | 270 | 3.0 | 7.0 | 0.00 | 0.01 | 0.00 | 39 | 1008.6 |
| 20260503211518 | 61 | 158 | 3.0 | 7.0 | 0.00 | 0.01 | 0.00 | 40 | 1008.4 |
| 20260503210519 | 61 | 225 | 3.0 | 6.0 | 0.00 | 0.01 | 0.00 | 39 | 1008.4 |
| 20260503205519 | 61 | 248 | 4.0 | 9.0 | 0.00 | 0.02 | 0.00 | 38 | 1008.4 |
| 20260503204541 | 61 | 248 | 2.0 | 6.0 | 0.00 | 0.03 | 0.00 | 38 | 1008.4 |
| 20260503203519 | 61 | 225 | 3.0 | 12.0 | 0.00 | 0.03 | 0.00 | 39 | 1008.5 |
| 20260503202518 | 61 | 225 | 3.0 | 7.0 | 0.00 | 0.03 | 0.00 | 38 | 1008.8 |
| 20260503201519 | 60 | 225 | 3.0 | 7.0 | 0.00 | 0.03 | 0.00 | 39 | 1009.0 |
| 20260503200539 | 60 | 180 | 2.0 | 7.0 | 0.00 | 0.03 | 0.00 | 37 | 1009.0 |
| 20260503195518 | 59 | 225 | 3.0 | 9.0 | 0.00 | 0.03 | 0.00 | 38 | 1009.4 |
| 20260503194521 | 59 | 203 | 1.0 | 5.0 | 0.00 | 0.03 | 0.00 | 38 | 1009.5 |
| 20260503193520 | 60 | 180 | 2.0 | 8.0 | 0.00 | 0.03 | 0.00 | 39 | 1009.7 |
| 20260503192519 | 60 | 225 | 2.0 | 5.0 | 0.00 | 0.03 | 0.00 | 39 | 1009.9 |
| 20260503191522 | 59 | 225 | 3.0 | 8.0 | 0.00 | 0.03 | 0.00 | 39 | 1010.0 |
| 20260503190519 | 59 | 225 | 4.0 | 12.0 | 0.00 | 0.03 | 0.00 | 36 | 1010.2 |
| 20260503185521 | 59 | 248 | 2.0 | 5.0 | 0.00 | 0.03 | 0.00 | 40 | 1010.5 |
| 20260503184518 | 60 | 225 | 5.0 | 12.0 | 0.00 | 0.03 | 0.00 | 36 | 1010.6 |
| 20260503183538 | 59 | 248 | 3.0 | 8.0 | 0.00 | 0.03 | 0.00 | 38 | 1010.7 |
| 20260503182540 | 59 | 180 | 1.0 | 5.0 | 0.00 | 0.03 | 0.00 | 40 | 1010.8 |
| 20260503181518 | 58 | 225 | 5.0 | 11.0 | 0.00 | 0.03 | 0.00 | 41 | 1011.0 |
| 20260503180522 | 58 | 248 | 5.0 | 16.0 | 0.00 | 0.03 | 0.00 | 42 | 1011.0 |
| 20260503175521 | 58 | 180 | 1.0 | 5.0 | 0.00 | 0.03 | 0.00 | 43 | 1010.9 |
| 20260503174539 | 58 | 248 | 3.0 | 7.0 | 0.00 | 0.03 | 0.00 | 42 | 1011.1 |
| 20260503173521 | 59 | 203 | 3.0 | 8.0 | 0.00 | 0.03 | 0.00 | 46 | 1011.1 |
| 20260503172522 | 57 | 293 | 2.0 | 8.0 | 0.00 | 0.03 | 0.00 | 42 | 1011.2 |
| 20260503171518 | 59 | 225 | 3.0 | 6.0 | 0.00 | 0.03 | 0.00 | 43 | 1011.2 |
| 20260503170539 | 59 | 203 | 4.0 | 9.0 | 0.00 | 0.03 | 0.00 | 44 | 1011.4 |
| 20260503150519 | 53 | 248 | 1.0 | 5.0 | 0.00 | 0.03 | 0.00 | 56 | 1012.6 |
| 20260503130520 | 42 | 0.0 | 4.0 | 0.00 | 0.03 | 0.00 | 69 | 1013.7 | |
| 20260503110518 | 32 | 0.0 | 0.0 | 0.00 | 0.03 | 0.00 | 87 | 1013.8 | |
| 20260503081619 | 36 | 0.0 | 0.0 | 0.00 | 0.03 | 0.00 | 78 | 1013.3 | |
| 20260503080518 | 36 | 0.0 | 0.0 | 0.00 | 0.03 | 0.00 | 77 | 1013.4 | |
| 20260503072519 | 38 | 0.0 | 0.0 | 0.00 | 0.03 | 0.00 | 76 | 1013.4 | |
| 20260503071518 | 38 | 0.0 | 0.0 | 0.00 | 0.03 | 0.00 | 75 | 1013.4 | |
| 20260503070518 | 39 | 0.0 | 0.0 | 0.00 | 0.03 | 0.00 | 75 | 1013.4 | |
| 20260503054521 | 42 | 0.0 | 0.0 | 0.00 | 0.03 | 0.00 | 74 | 1013.6 | |
| 20260503053620 | 42 | 0.0 | 0.0 | 0.00 | 0.03 | 0.00 | 74 | 1013.7 | |
| 20260503052520 | 42 | 0.0 | 0.0 | 0.00 | 0.03 | 0.00 | 74 | 1013.8 | |
| 20260503051540 | 42 | 0.0 | 0.0 | 0.00 | 0.03 | 0.00 | 74 | 1013.9 | |
| 20260503050520 | 42 | 0.0 | 1.0 | 0.00 | 0.03 | 0.00 | 73 | 1013.9 | |
| 20260503045520 | 42 | 0.0 | 0.0 | 0.00 | 0.03 | 0.00 | 73 | 1014.0 | |
| 20260503044520 | 42 | 0.0 | 0.0 | 0.00 | 0.03 | 0.00 | 73 | 1014.0 | |
| 20260503043540 | 42 | 0.0 | 1.0 | 0.00 | 0.03 | 0.00 | 74 | 1014.1 | |
| 20260503042520 | 42 | 0.0 | 0.0 | 0.00 | 0.03 | 0.00 | 73 | 1014.1 | |
| 20260503041520 | 42 | 0.0 | 0.0 | 0.00 | 0.03 | 0.00 | 74 | 1014.1 | |
| 20260503040520 | 43 | 0.0 | 0.0 | 0.00 | 0.04 | 0.00 | 74 | 1014.2 | |
| 20260503035519 | 43 | 0.0 | 0.0 | 0.00 | 0.04 | 0.04 | 74 | 1014.1 | |
| 20260503034539 | 43 | 0.0 | 1.0 | 0.00 | 0.04 | 0.04 | 73 | 1014.1 | |
| 20260503033518 | 43 | 0.0 | 0.0 | 0.00 | 0.04 | 0.04 | 73 | 1014.1 | |
| 20260503032518 | 43 | 0.0 | 2.0 | 0.00 | 0.04 | 0.04 | 73 | 1014.2 | |
| 20260503030519 | 43 | 0.0 | 0.0 | 0.00 | 0.04 | 0.04 | 73 | 1014.3 | |
| 20260503025519 | 43 | 0.0 | 0.0 | 0.00 | 0.04 | 0.04 | 73 | 1014.3 | |
| 20260503024518 | 43 | 0.0 | 0.0 | 0.00 | 0.04 | 0.04 | 73 | 1014.4 | |
| 20260503023519 | 43 | 0.0 | 0.0 | 0.00 | 0.04 | 0.04 | 73 | 1014.4 | |
| 20260503022519 | 43 | 0.0 | 0.0 | 0.00 | 0.04 | 0.04 | 72 | 1014.4 | |
| 20260503021518 | 43 | 0.0 | 0.0 | 0.00 | 0.04 | 0.04 | 72 | 1014.5 | |
| 20260503020519 | 43 | 0.0 | 0.0 | 0.00 | 0.04 | 0.04 | 72 | 1014.6 | |
| 20260503015518 | 43 | 0.0 | 2.0 | 0.00 | 0.04 | 0.04 | 72 | 1014.6 | |
| 20260503014539 | 43 | 0.0 | 1.0 | 0.00 | 0.04 | 0.04 | 72 | 1014.5 | |
| 20260503013518 | 43 | 0.0 | 0.0 | 0.00 | 0.04 | 0.04 | 72 | 1014.5 | |
| 20260503012519 | 43 | 0.0 | 0.0 | 0.00 | 0.04 | 0.04 | 72 | 1014.4 | |
| 20260503011518 | 43 | 0.0 | 3.0 | 0.00 | 0.04 | 0.04 | 72 | 1014.4 |